HA9HP Weather Reports


time (UTC)temp
F
wind
direction
speed
knots
gust
knots
rain 1hr
in
rain 24hr
in
rain mn
in
humidity
%
barometer
mb
20260507101528 69 202 3.5 7.8 0.00 0.00 0.00 65 1013.1
20260507100014 68 185 3.5 8.7 0.00 0.00 0.00 64 1013.1
20260507094518 69 166 4.3 9.6 0.00 0.00 0.00 63 1013.1
20260507093021 69 209 2.6 7.8 0.00 0.00 0.00 61 1012.9
20260507091527 69 142 3.5 6.1 0.00 0.00 0.00 63 1012.8
20260507090009 68 157 2.6 9.6 0.00 0.00 0.00 64 1012.7
20260507084514 67 234 3.5 9.6 0.00 0.00 0.00 64 1012.5
20260507083020 68 186 1.7 8.7 0.00 0.00 0.00 64 1012.5
20260507081534 69 301 1.7 7.8 0.00 0.00 0.00 65 1012.3
20260507080011 68 186 4.3 8.7 0.00 0.00 0.00 64 1012.3
20260507074511 67 167 2.6 10.4 0.00 0.00 0.00 68 1012.2
20260507073016 67 200 2.6 6.1 0.00 0.00 0.00 69 1012.1
20260507071521 67 188 1.7 6.1 0.00 0.00 0.00 70 1012.1
20260507070028 65 173 2.6 7.0 0.00 0.00 0.00 74 1012.1
20260507064512 65 279 1.7 7.0 0.00 0.00 0.00 76 1012.1
20260507063016 64 188 0.9 8.7 0.00 0.00 0.00 76 1012.1
20260507061518 64 194 3.5 6.1 0.00 0.00 0.00 76 1012.2
20260507060026 63 172 1.7 4.3 0.00 0.00 0.00 78 1011.9
20260507054528 62 210 0.9 1.7 0.00 0.00 0.00 81 1012.1
20260507053014 62 192 1.7 2.6 0.00 0.00 0.00 80 1011.8
20260507051518 61 313 0.0 1.7 0.00 0.00 0.00 83 1011.6
20260507050030 60 314 0.0 0.9 0.00 0.00 0.00 83 1011.5
20260507044524 59 315 0.0 1.7 0.00 0.00 0.00 86 1011.5
20260507043029 59 192 0.0 1.7 0.00 0.00 0.00 86 1011.3
20260507041515 58 151 0.0 1.7 0.00 0.00 0.00 86 1011.1
20260507040019 58 152 0.0 1.7 0.00 0.00 0.00 85 1011.0
20260507034531 59 165 0.0 1.7 0.00 0.00 0.00 85 1011.0
20260507033029 59 165 0.0 1.7 0.00 0.00 0.00 82 1011.0
20260507031519 59 137 0.0 1.7 0.00 0.00 0.00 81 1011.0
20260507030021 59 137 0.0 1.7 0.00 0.00 0.00 78 1011.1
20260507024524 59 174 0.0 1.7 0.00 0.00 0.00 78 1010.9
20260507023026 59 192 0.0 1.7 0.00 0.00 0.00 78 1010.8
20260507021526 60 189 0.0 1.7 0.00 0.00 0.00 76 1010.7
20260507020027 60 182 0.0 1.7 0.00 0.00 0.00 74 1010.7
20260507014522 61 182 0.0 1.7 0.00 0.00 0.00 73 1010.9
20260507013026 61 206 0.0 1.7 0.00 0.00 0.00 73 1011.0
20260507011540 61 257 0.0 1.7 0.00 0.00 0.00 73 1010.8
20260507010016 61 153 0.0 2.6 0.00 0.00 0.00 73 1010.8
20260507004519 60 210 0.0 1.7 0.00 0.00 0.00 73 1010.8
20260507003024 60 144 0.9 3.5 0.00 0.00 0.00 74 1010.6
20260507001600 59 225 0.0 1.7 0.00 0.00 0.00 74 1010.5
20260507000016 59 225 0.0 3.5 0.00 0.00 0.00 75 1010.3
20260506234518 58 132 0.0 1.7 0.00 0.00 0.00 76 1010.2
20260506233025 58 360 0.0 1.7 0.00 0.00 0.00 77 1010.1
20260506231525 59 360 0.0 1.7 0.00 0.00 0.00 75 1010.3
20260506230043 60 360 0.0 0.9 0.00 0.00 0.00 74 1010.3
20260506224517 58 262 0.9 2.6 0.00 0.00 0.00 75 1010.3
20260506223029 56 257 0.9 1.7 0.00 0.00 0.00 81 1010.4
20260506221523 55 119 0.0 1.7 0.00 0.00 0.00 83 1010.3
20260506220033 55 277 0.0 1.7 0.00 0.00 0.00 81 1010.1
20260506214513 55 277 0.0 1.7 0.00 0.00 0.00 82 1010.1
20260506213018 55 277 0.0 1.7 0.00 0.00 0.00 82 1010.1
20260506211523 55 277 0.0 1.7 0.00 0.00 0.00 82 1010.3
20260506210046 55 277 0.0 1.7 0.00 0.00 0.00 81 1010.3
20260506204528 55 277 0.0 1.7 0.00 0.00 0.00 81 1010.2
20260506203016 56 277 0.0 1.7 0.00 0.00 0.00 80 1010.2
20260506201523 56 277 0.0 1.7 0.00 0.00 0.00 78 1010.2
20260506200025 57 210 0.0 1.7 0.00 0.00 0.00 77 1010.0
20260506194528 58 203 0.0 1.7 0.00 0.00 0.00 75 1010.0
20260506193035 59 200 0.0 1.7 0.00 0.00 0.00 74 1010.0
20260506191518 60 152 0.0 1.7 0.00 0.00 0.00 71 1009.8
20260506190030 61 152 0.0 1.7 0.00 0.00 0.00 68 1009.7
20260506184536 63 152 0.0 0.0 0.00 0.00 0.00 64 1009.5
20260506183028 66 152 0.0 0.0 0.00 0.00 0.00 59 1009.4
20260506181538 68 152 0.0 1.7 0.00 0.00 0.00 56 1009.4
20260506180025 70 152 0.0 1.7 0.00 0.00 0.00 54 1009.3
20260506174524 72 152 0.0 1.7 0.00 0.00 0.00 50 1009.2
20260506173028 73 172 0.0 1.7 0.00 0.00 0.00 46 1009.1
20260506171532 74 167 0.9 3.5 0.00 0.00 0.00 44 1009.1
20260506170027 74 236 0.9 4.3 0.00 0.00 0.00 44 1009.2
20260506164541 75 188 0.9 3.5 0.00 0.00 0.00 43 1009.2
20260506163028 75 192 1.7 5.2 0.00 0.00 0.00 42 1009.4
20260506161528 76 174 2.6 7.0 0.00 0.00 0.00 41 1009.4
20260506160019 76 253 1.7 6.1 0.00 0.00 0.00 41 1009.5
20260506154524 76 182 3.5 8.7 0.00 0.00 0.00 40 1009.6
20260506153007 77 174 3.5 7.8 0.00 0.00 0.00 39 1009.7
20260506151514 77 214 2.6 7.8 0.00 0.00 0.00 39 1009.9
20260506150014 78 277 5.2 9.6 0.00 0.00 0.00 36 1009.8
20260506144526 78 241 5.2 14.8 0.00 0.00 0.00 37 1009.9
20260506143025 78 248 4.3 16.5 0.00 0.00 0.00 38 1009.9
20260506141521 78 185 3.5 13.0 0.00 0.00 0.00 36 1010.0
20260506140015 78 255 6.1 10.4 0.00 0.00 0.00 37 1010.2
20260506134520 78 264 7.0 13.0 0.00 0.00 0.00 39 1010.2
20260506133025 77 188 3.5 11.3 0.00 0.00 0.00 39 1010.3
20260506131525 76 144 5.2 11.3 0.00 0.00 0.00 39 1010.3
20260506130014 76 178 3.5 15.6 0.00 0.00 0.00 39 1010.5
20260506124519 76 168 3.5 10.4 0.00 0.00 0.00 39 1010.5
20260506123023 76 187 3.5 10.4 0.00 0.00 0.00 40 1010.6
20260506121524 75 263 4.3 13.0 0.00 0.00 0.00 41 1010.8
20260506120015 76 179 5.2 13.0 0.00 0.00 0.00 40 1010.9
20260506114519 76 236 4.3 12.2 0.00 0.00 0.00 42 1010.7
20260506113019 76 181 3.5 13.0 0.00 0.00 0.00 42 1010.8
20260506111524 76 160 4.3 17.4 0.00 0.00 0.00 42 1010.8
20260506110030 75 149 3.5 10.4 0.00 0.00 0.00 43 1010.9
20260506104526 75 232 5.2 13.0 0.00 0.00 0.00 45 1011.0
20260506103035 75 141 3.5 10.4 0.00 0.00 0.00 45 1011.1